owner,sensor,date,latitude,longitude,vertical_datum,wind_speed,wind_to_direction,wind_speed_of_gust,qcFlag 
TABS,ioos:station:wmo:42045:1,2017-01-01T00:00:00Z,26.2168,-96.4998,4.0,7.407698698,184.9565386,8.79,'11111222,11111222,11111222' 
TABS,ioos:station:wmo:42045:1,2017-01-01T00:30:00Z,26.2168,-96.4998,4.0,12.10167757,189.081116,13.52,'11111222,11111222,11111222' 
TABS,ioos:station:wmo:42045:1,2017-01-01T01:00:00Z,26.2168,-96.4998,4.0,11.34964757,191.7952417,12.59,'11111222,11111222,11111222' 
TABS,ioos:station:wmo:42045:1,2017-01-01T01:30:00Z,26.2168,-96.4998,4.0,8.286965669,183.6671053,14.58,'11111222,11111222,11111222' 
TABS,ioos:station:wmo:42045:1,2017-01-01T02:00:00Z,26.2168,-96.4998,4.0,12.16932619,188.0304177,14.43,'11111222,11111222,11111222' 
TABS,ioos:station:wmo:42045:1,2017-01-01T02:30:00Z,26.2168,-96.4998,4.0,10.54567684,191.8748498,12.91,'11111222,11111222,11111222' 
TABS,ioos:station:wmo:42045:1,2017-01-01T03:00:00Z,26.2168,-96.4998,4.0,11.89298953,191.8392169,13.56,'11111222,11111222,11111222' 
TABS,ioos:station:wmo:42045:1,2017-01-01T03:30:00Z,26.2168,-96.4998,4.0,6.663947779,188.5437102,8.25,'11111222,11111222,11111222' 
TABS,ioos:station:wmo:42045:1,2017-01-01T04:00:00Z,26.2168,-96.4998,4.0,7.404120474,185.5028914,8.43,'11111222,11111222,11111222' 
TABS,ioos:station:wmo:42045:1,2017-01-01T04:30:00Z,26.2168,-96.4998,4.0,6.339369054,189.0761868,7.5,'11111222,11111222,11111222' 
TABS,ioos:station:wmo:42045:1,2017-01-01T05:00:00Z,26.2168,-96.4998,4.0,5.390454526,180.7442679,6.45,'11111222,11111222,11111222' 
TABS,ioos:station:wmo:42045:1,2017-01-01T05:30:00Z,26.2168,-96.4998,4.0,5.592924101,176.1043716,6.85,'11111222,11111222,11111222' 
TABS,ioos:station:wmo:42045:1,2017-01-01T06:00:00Z,26.2168,-96.4998,4.0,5.577033262,182.878,6.7,'11111222,11111222,11111222' 
TABS,ioos:station:wmo:42045:1,2017-01-01T06:30:00Z,26.2168,-96.4998,4.0,5.312212345,183.8860214,6.5,'11111222,11111222,11111222' 
TABS,ioos:station:wmo:42045:1,2017-01-01T07:00:00Z,26.2168,-96.4998,4.0,4.136580714,185.1319268,5.06,'11111222,11111222,11111222' 
TABS,ioos:station:wmo:42045:1,2017-01-01T07:30:00Z,26.2168,-96.4998,4.0,3.574045327,177.2739058,4.45,'11111222,11111222,11111222' 
TABS,ioos:station:wmo:42045:1,2017-01-01T08:00:00Z,26.2168,-96.4998,4.0,2.85085952,178.5932319,3.47,'11111222,11111222,11111222' 
TABS,ioos:station:wmo:42045:1,2017-01-01T08:30:00Z,26.2168,-96.4998,4.0,2.869233347,175.4024134,3.45,'11111222,11111222,11111222' 
TABS,ioos:station:wmo:42045:1,2017-01-01T09:00:00Z,26.2168,-96.4998,4.0,2.102379604,191.5239052,2.68,'11111222,11111222,11111222' 
TABS,ioos:station:wmo:42045:1,2017-01-01T09:30:00Z,26.2168,-96.4998,4.0,0.981835017,236.633712,1.31,'11111222,11111222,11111222' 
TABS,ioos:station:wmo:42045:1,2017-01-01T10:00:00Z,26.2168,-96.4998,4.0,5.610142601,313.1941988,6.78,'11111222,11111222,11111222' 
TABS,ioos:station:wmo:42045:1,2017-01-01T10:30:00Z,26.2168,-96.4998,4.0,4.024984472,296.8832949,4.87,'11111222,11111222,11111222' 
TABS,ioos:station:wmo:42045:1,2017-01-01T11:00:00Z,26.2168,-96.4998,4.0,3.878272811,279.0494094,4.72,'11111222,11111222,11111222' 
TABS,ioos:station:wmo:42045:1,2017-01-01T11:30:00Z,26.2168,-96.4998,4.0,3.53327044,297.2902117,4.64,'11111222,11111222,11111222' 
TABS,ioos:station:wmo:42045:1,2017-01-01T12:00:00Z,26.2168,-96.4998,4.0,3.133831521,313.3190151,4.08,'11111222,11111222,11111222' 
TABS,ioos:station:wmo:42045:1,2017-01-01T12:30:00Z,26.2168,-96.4998,4.0,3.722284245,330.1977013,4.49,'11111222,11111222,11111222' 
TABS,ioos:station:wmo:42045:1,2017-01-01T13:00:00Z,26.2168,-96.4998,4.0,3.122370894,332.1216632,3.98,'11111222,11111222,11111222' 
TABS,ioos:station:wmo:42045:1,2017-01-01T13:30:00Z,26.2168,-96.4998,4.0,2.038062806,347.5319964,2.78,'11111222,11111222,11111222' 
TABS,ioos:station:wmo:42045:1,2017-01-01T14:00:00Z,26.2168,-96.4998,4.0,0.483838816,18.06021924,1.31,'11111222,11111222,11111222' 
TABS,ioos:station:wmo:42045:1,2017-01-01T14:30:00Z,26.2168,-96.4998,4.0,0.522015325,339.8291833,1.01,'11111222,11111222,11111222' 
TABS,ioos:station:wmo:42045:1,2017-01-01T15:00:00Z,26.2168,-96.4998,4.0,1.870026738,22.31321069,3.08,'11111222,11111222,11111222' 
TABS,ioos:station:wmo:42045:1,2017-01-01T15:30:00Z,26.2168,-96.4998,4.0,1.815957048,117.5531681,3.61,'11111222,11111222,11111222' 
TABS,ioos:station:wmo:42045:1,2017-01-01T16:00:00Z,26.2168,-96.4998,4.0,1.192686044,56.97578875,1.84,'11111222,11111222,11111222' 
TABS,ioos:station:wmo:42045:1,2017-01-01T16:30:00Z,26.2168,-96.4998,4.0,7.412219641,83.88134485,7.91,'11111222,11111222,11111222' 
TABS,ioos:station:wmo:42045:1,2017-01-01T17:00:00Z,26.2168,-96.4998,4.0,6.417055399,125.1020789,7.5,'11111222,11111222,11111222' 
TABS,ioos:station:wmo:42045:1,2017-01-01T17:30:00Z,26.2168,-96.4998,4.0,7.129544165,119.5857462,8.33,'11111222,11111222,11111222' 
TABS,ioos:station:wmo:42045:1,2017-01-01T18:00:00Z,26.2168,-96.4998,4.0,8.182866246,122.777641,9.48,'11111222,11111222,11111222' 
TABS,ioos:station:wmo:42045:1,2017-01-01T18:30:00Z,26.2168,-96.4998,4.0,8.582103472,136.9361998,10.08,'11111222,11111222,11111222' 
TABS,ioos:station:wmo:42045:1,2017-01-01T19:00:00Z,26.2168,-96.4998,4.0,8.811276865,135.7360139,9.92,'11111222,11111222,11111222' 
TABS,ioos:station:wmo:42045:1,2017-01-01T19:30:00Z,26.2168,-96.4998,4.0,7.569867898,130.3389114,9.44,'11111222,11111222,11111222' 
TABS,ioos:station:wmo:42045:1,2017-01-01T20:00:00Z,26.2168,-96.4998,4.0,2.363937393,202.1166243,4.03,'11111222,11111222,11111222' 
TABS,ioos:station:wmo:42045:1,2017-01-01T20:30:00Z,26.2168,-96.4998,4.0,4.170767315,201.5209603,5.43,'11111222,11111222,11111222' 
TABS,ioos:station:wmo:42045:1,2017-01-01T21:00:00Z,26.2168,-96.4998,4.0,4.31723291,199.4843697,5.76,'11111222,11111222,11111222' 
TABS,ioos:station:wmo:42045:1,2017-01-01T21:30:00Z,26.2168,-96.4998,4.0,2.683281573,169.6953881,4.97,'11111222,11111222,11111222' 
TABS,ioos:station:wmo:42045:1,2017-01-01T22:00:00Z,26.2168,-96.4998,4.0,2.795013417,159.0363366,3.74,'11111222,11111222,11111222' 
TABS,ioos:station:wmo:42045:1,2017-01-01T22:30:00Z,26.2168,-96.4998,4.0,2.43115199,150.6938772,3.24,'11111222,11111222,11111222' 
TABS,ioos:station:wmo:42045:1,2017-01-01T23:00:00Z,26.2168,-96.4998,4.0,2.154181979,162.9952955,2.71,'11111222,11111222,11111222' 
TABS,ioos:station:wmo:42045:1,2017-01-01T23:30:00Z,26.2168,-96.4998,4.0,1.962294575,166.7430026,2.2,'11111222,11111222,11111222' 
TABS,ioos:station:wmo:42045:1,2017-01-02T00:00:00Z,26.2168,-96.4998,4.0,1.876645944,150.2932676,2.17,'11111222,11111222,11111222' 
TABS,ioos:station:wmo:42045:1,2017-01-02T00:30:00Z,26.2168,-96.4998,4.0,2.033642053,162.5453835,2.36,'11111222,11111222,11111222' 
TABS,ioos:station:wmo:42045:1,2017-01-02T01:00:00Z,26.2168,-96.4998,4.0,1.993614807,139.6795639,2.32,'11111222,11111222,11111222' 
TABS,ioos:station:wmo:42045:1,2017-01-02T01:30:00Z,26.2168,-96.4998,4.0,2.537124356,131.1650056,3.1,'11111222,11111222,11111222' 
TABS,ioos:station:wmo:42045:1,2017-01-02T02:00:00Z,26.2168,-96.4998,4.0,3.197905565,145.9623773,3.76,'11111222,11111222,11111222' 
TABS,ioos:station:wmo:42045:1,2017-01-02T02:30:00Z,26.2168,-96.4998,4.0,2.452835094,147.9949021,3.21,'11111222,11111222,11111222' 
TABS,ioos:station:wmo:42045:1,2017-01-02T03:00:00Z,26.2168,-96.4998,4.0,2.441003892,119.716119,3.21,'11111222,11111222,11111222' 
TABS,ioos:station:wmo:42045:1,2017-01-02T03:30:00Z,26.2168,-96.4998,4.0,2.678843034,116.8523641,3.19,'11111222,11111222,11111222' 
TABS,ioos:station:wmo:42045:1,2017-01-02T04:00:00Z,26.2168,-96.4998,4.0,2.952558213,139.9462707,3.94,'11111222,11111222,11111222' 
TABS,ioos:station:wmo:42045:1,2017-01-02T04:30:00Z,26.2168,-96.4998,4.0,4.978875375,150.6550629,5.56,'11111222,11111222,11111222' 
TABS,ioos:station:wmo:42045:1,2017-01-02T05:00:00Z,26.2168,-96.4998,4.0,4.576548918,145.6852031,5.01,'11111222,11111222,11111222' 
TABS,ioos:station:wmo:42045:1,2017-01-02T05:30:00Z,26.2168,-96.4998,4.0,5.189874758,149.6802705,5.93,'11111222,11111222,11111222' 
TABS,ioos:station:wmo:42045:1,2017-01-02T06:00:00Z,26.2168,-96.4998,4.0,6.075664573,155.0802259,6.96,'11111222,11111222,11111222' 
TABS,ioos:station:wmo:42045:1,2017-01-02T06:30:00Z,26.2168,-96.4998,4.0,6.338840588,152.0607131,7.31,'11111222,11111222,11111222' 
TABS,ioos:station:wmo:42045:1,2017-01-02T07:00:00Z,26.2168,-96.4998,4.0,6.924687719,155.8781566,7.66,'11111222,11111222,11111222' 
TABS,ioos:station:wmo:42045:1,2017-01-02T07:30:00Z,26.2168,-96.4998,4.0,6.191122677,157.9926298,7.22,'11111222,11111222,11111222' 
TABS,ioos:station:wmo:42045:1,2017-01-02T08:00:00Z,26.2168,-96.4998,4.0,7.084631254,160.5422769,7.85,'11111222,11111222,11111222' 
TABS,ioos:station:wmo:42045:1,2017-01-02T08:30:00Z,26.2168,-96.4998,4.0,6.783251433,161.9659671,7.64,'11111222,11111222,11111222' 
TABS,ioos:station:wmo:42045:1,2017-01-02T09:00:00Z,26.2168,-96.4998,4.0,6.902412622,163.8496146,7.96,'11111222,11111222,11111222' 
TABS,ioos:station:wmo:42045:1,2017-01-02T09:30:00Z,26.2168,-96.4998,4.0,6.048842865,171.3476889,6.96,'11111222,11111222,11111222' 
TABS,ioos:station:wmo:42045:1,2017-01-02T10:00:00Z,26.2168,-96.4998,4.0,7.250324131,169.9922541,8.43,'11111222,11111222,11111222' 
TABS,ioos:station:wmo:42045:1,2017-01-02T10:30:00Z,26.2168,-96.4998,4.0,6.480563247,166.0712146,7.57,'11111222,11111222,11111222' 
TABS,ioos:station:wmo:42045:1,2017-01-02T11:00:00Z,26.2168,-96.4998,4.0,6.190129239,174.3448909,7.05,'11111222,11111222,11111222' 
TABS,ioos:station:wmo:42045:1,2017-01-02T11:30:00Z,26.2168,-96.4998,4.0,6.739651326,173.7820788,7.43,'11111222,11111222,11111222' 
TABS,ioos:station:wmo:42045:1,2017-01-02T12:00:00Z,26.2168,-96.4998,4.0,6.774452007,169.4533166,7.96,'11111222,11111222,11111222' 
TABS,ioos:station:wmo:42045:1,2017-01-02T12:30:00Z,26.2168,-96.4998,4.0,7.216792917,171.6343439,8.33,'11111222,11111222,11111222' 
TABS,ioos:station:wmo:42045:1,2017-01-02T13:00:00Z,26.2168,-96.4998,4.0,7.453388491,175.4600158,9.31,'11111222,11111222,11111222' 
TABS,ioos:station:wmo:42045:1,2017-01-02T13:30:00Z,26.2168,-96.4998,4.0,7.372706423,186.8553134,8.77,'11111222,11111222,11111222' 
TABS,ioos:station:wmo:42045:1,2017-01-02T14:00:00Z,26.2168,-96.4998,4.0,7.302088742,183.2975491,8.61,'11111222,11111222,11111222' 
TABS,ioos:station:wmo:42045:1,2017-01-02T14:30:00Z,26.2168,-96.4998,4.0,7.670788747,179.1785561,8.73,'11111222,11111222,11111222' 
TABS,ioos:station:wmo:42045:1,2017-01-02T15:00:00Z,26.2168,-96.4998,4.0,8.342002158,196.2191671,9.75,'11111222,11111222,11111222' 
TABS,ioos:station:wmo:42045:1,2017-01-02T15:30:00Z,26.2168,-96.4998,4.0,7.345338658,203.424077,8.74,'11111222,11111222,11111222' 
TABS,ioos:station:wmo:42045:1,2017-01-02T16:00:00Z,26.2168,-96.4998,4.0,10.18805673,217.0612316,12.59,'11111222,11111222,11111222' 
TABS,ioos:station:wmo:42045:1,2017-01-02T16:30:00Z,26.2168,-96.4998,4.0,12.85478899,222.3517538,15.54,'11111222,11111222,11111222' 
TABS,ioos:station:wmo:42045:1,2017-01-02T17:00:00Z,26.2168,-96.4998,4.0,8.71160146,225.1861294,10.24,'11111222,11111222,11111222' 
TABS,ioos:station:wmo:42045:1,2017-01-02T17:30:00Z,26.2168,-96.4998,4.0,8.635050666,224.0147736,10.01,'11111222,11111222,11111222' 
TABS,ioos:station:wmo:42045:1,2017-01-02T18:00:00Z,26.2168,-96.4998,4.0,6.880792106,234.7624811,7.98,'11111222,11111222,11111222' 
TABS,ioos:station:wmo:42045:1,2017-01-02T18:30:00Z,26.2168,-96.4998,4.0,4.66,270.0,5.66,'11111222,11111222,11111222' 
TABS,ioos:station:wmo:42045:1,2017-01-02T19:00:00Z,26.2168,-96.4998,4.0,4.402044979,275.736482,5.39,'11111222,11111222,11111222' 
TABS,ioos:station:wmo:42045:1,2017-01-02T19:30:00Z,26.2168,-96.4998,4.0,4.505685297,278.1660505,5.29,'11111222,11111222,11111222' 
TABS,ioos:station:wmo:42045:1,2017-01-02T20:00:00Z,26.2168,-96.4998,4.0,4.658036067,288.3960085,5.64,'11111222,11111222,11111222' 
TABS,ioos:station:wmo:42045:1,2017-01-02T20:30:00Z,26.2168,-96.4998,4.0,4.820663855,291.6689343,5.75,'11111222,11111222,11111222' 
TABS,ioos:station:wmo:42045:1,2017-01-02T21:00:00Z,26.2168,-96.4998,4.0,4.594921109,288.0011548,5.3,'11111222,11111222,11111222' 
TABS,ioos:station:wmo:42045:1,2017-01-02T21:30:00Z,26.2168,-96.4998,4.0,3.864324003,291.7187603,4.45,'11111222,11111222,11111222' 
TABS,ioos:station:wmo:42045:1,2017-01-02T22:00:00Z,26.2168,-96.4998,4.0,3.118926097,298.5370872,3.76,'11111222,11111222,11111222' 
TABS,ioos:station:wmo:42045:1,2017-01-02T22:30:00Z,26.2168,-96.4998,4.0,2.762933224,311.4784496,3.43,'11111222,11111222,11111222' 
TABS,ioos:station:wmo:42045:1,2017-01-02T23:00:00Z,26.2168,-96.4998,4.0,2.042008815,322.961627,3.42,'11111222,11111222,11111222' 
TABS,ioos:station:wmo:42045:1,2017-01-02T23:30:00Z,26.2168,-96.4998,4.0,1.882896705,353.2899684,2.37,'11111222,11111222,11111222' 
TABS,ioos:station:wmo:42045:1,2017-01-03T00:00:00Z,26.2168,-96.4998,4.0,2.138270329,37.78068037,2.83,'11111222,11111222,11111222' 
TABS,ioos:station:wmo:42045:1,2017-01-03T00:30:00Z,26.2168,-96.4998,4.0,2.162059204,52.70575582,2.61,'11111222,11111222,11111222' 
TABS,ioos:station:wmo:42045:1,2017-01-03T01:00:00Z,26.2168,-96.4998,4.0,2.609310254,70.52304913,3.09,'11111222,11111222,11111222' 
TABS,ioos:station:wmo:42045:1,2017-01-03T01:30:00Z,26.2168,-96.4998,4.0,3.270305796,68.84890976,3.69,'11111222,11111222,11111222' 
TABS,ioos:station:wmo:42045:1,2017-01-03T02:00:00Z,26.2168,-96.4998,4.0,3.707519386,84.42739431,4.2,'11111222,11111222,11111222' 
TABS,ioos:station:wmo:42045:1,2017-01-03T02:30:00Z,26.2168,-96.4998,4.0,2.971346496,79.33256751,3.54,'11111222,11111222,11111222' 
TABS,ioos:station:wmo:42045:1,2017-01-03T03:00:00Z,26.2168,-96.4998,4.0,2.771804466,87.93204211,3.18,'11111222,11111222,11111222' 
TABS,ioos:station:wmo:42045:1,2017-01-03T03:30:00Z,26.2168,-96.4998,4.0,2.950610106,85.13919268,3.37,'11111222,11111222,11111222' 
TABS,ioos:station:wmo:42045:1,2017-01-03T04:00:00Z,26.2168,-96.4998,4.0,3.370370899,90.85044231,3.88,'11111222,11111222,11111222' 
TABS,ioos:station:wmo:42045:1,2017-01-03T04:30:00Z,26.2168,-96.4998,4.0,2.732489707,100.1176968,3.17,'11111222,11111222,11111222' 
TABS,ioos:station:wmo:42045:1,2017-01-03T05:00:00Z,26.2168,-96.4998,4.0,2.366114959,94.1205332,2.91,'11111222,11111222,11111222' 
TABS,ioos:station:wmo:42045:1,2017-01-03T05:30:00Z,26.2168,-96.4998,4.0,2.221711052,103.5362456,2.68,'11111222,11111222,11111222' 
TABS,ioos:station:wmo:42045:1,2017-01-03T06:00:00Z,26.2168,-96.4998,4.0,2.166887168,97.15821719,2.62,'11111222,11111222,11111222' 
TABS,ioos:station:wmo:42045:1,2017-01-03T06:30:00Z,26.2168,-96.4998,4.0,1.619135572,72.01228649,2.46,'11111222,11111222,11111222' 
TABS,ioos:station:wmo:42045:1,2017-01-03T07:00:00Z,26.2168,-96.4998,4.0,1.718138528,77.90485029,2.28,'11111222,11111222,11111222' 
TABS,ioos:station:wmo:42045:1,2017-01-03T07:30:00Z,26.2168,-96.4998,4.0,1.72626765,100.0083773,2.09,'11111222,11111222,11111222' 
TABS,ioos:station:wmo:42045:1,2017-01-03T08:00:00Z,26.2168,-96.4998,4.0,2.022325394,112.3805036,2.59,'11111222,11111222,11111222' 
TABS,ioos:station:wmo:42045:1,2017-01-03T08:30:00Z,26.2168,-96.4998,4.0,1.441839103,80.01464223,2.04,'11111222,11111222,11111222' 
TABS,ioos:station:wmo:42045:1,2017-01-03T09:00:00Z,26.2168,-96.4998,4.0,2.291571513,112.312505,2.62,'11111222,11111222,11111222' 
TABS,ioos:station:wmo:42045:1,2017-01-03T09:30:00Z,26.2168,-96.4998,4.0,2.746142749,119.9263836,3.3,'11111222,11111222,11111222' 
TABS,ioos:station:wmo:42045:1,2017-01-03T10:00:00Z,26.2168,-96.4998,4.0,3.629889805,129.5229598,4.36,'11111222,11111222,11111222' 
TABS,ioos:station:wmo:42045:1,2017-01-03T10:30:00Z,26.2168,-96.4998,4.0,2.880433995,132.6085218,3.48,'11111222,11111222,11111222' 
TABS,ioos:station:wmo:42045:1,2017-01-03T11:00:00Z,26.2168,-96.4998,4.0,1.874886663,123.6904097,2.39,'11111222,11111222,11111222' 
TABS,ioos:station:wmo:42045:1,2017-01-03T11:30:00Z,26.2168,-96.4998,4.0,1.204159458,85.23594853,1.51,'11111222,11111222,11111222' 
TABS,ioos:station:wmo:42045:1,2017-01-03T12:00:00Z,26.2168,-96.4998,4.0,1.366528448,128.4636973,1.71,'11111222,11111222,11111222' 
TABS,ioos:station:wmo:42045:1,2017-01-03T12:30:00Z,26.2168,-96.4998,4.0,2.286503881,141.9275176,3.14,'11111222,11111222,11111222' 
TABS,ioos:station:wmo:42045:1,2017-01-03T13:00:00Z,26.2168,-96.4998,4.0,2.427447219,147.6196085,3.02,'11111222,11111222,11111222' 
TABS,ioos:station:wmo:42045:1,2017-01-03T13:30:00Z,26.2168,-96.4998,4.0,3.345743565,154.5074746,4.11,'11111222,11111222,11111222' 
TABS,ioos:station:wmo:42045:1,2017-01-03T14:00:00Z,26.2168,-96.4998,4.0,2.745632896,166.5207421,3.47,'11111222,11111222,11111222' 
TABS,ioos:station:wmo:42045:1,2017-01-03T14:30:00Z,26.2168,-96.4998,4.0,1.278632082,146.8073515,1.73,'11111222,11111222,11111222' 
TABS,ioos:station:wmo:42045:1,2017-01-03T15:00:00Z,26.2168,-96.4998,4.0,1.82463695,161.4660056,2.4,'11111222,11111222,11111222' 
TABS,ioos:station:wmo:42045:1,2017-01-03T15:30:00Z,26.2168,-96.4998,4.0,0.652993109,220.0303761,1.08,'11111222,11111222,11111222' 
TABS,ioos:station:wmo:42045:1,2017-01-03T16:00:00Z,26.2168,-96.4998,4.0,0.498196748,259.592313,0.98,'11111222,11111222,11111222' 
TABS,ioos:station:wmo:42045:1,2017-01-03T16:30:00Z,26.2168,-96.4998,4.0,0.604069532,340.6650262,1.27,'11111222,11111222,11111222' 
TABS,ioos:station:wmo:42045:1,2017-01-03T17:00:00Z,26.2168,-96.4998,4.0,3.807807768,342.4213994,4.71,'11111222,11111222,11111222' 
TABS,ioos:station:wmo:42045:1,2017-01-03T17:30:00Z,26.2168,-96.4998,4.0,4.529657824,342.9249998,5.34,'11111222,11111222,11111222' 
TABS,ioos:station:wmo:42045:1,2017-01-03T18:00:00Z,26.2168,-96.4998,4.0,3.508233174,335.4072128,4.61,'11111222,11111222,11111222' 
TABS,ioos:station:wmo:42045:1,2017-01-03T18:30:00Z,26.2168,-96.4998,4.0,3.882911279,338.3902378,4.69,'11111222,11111222,11111222' 
TABS,ioos:station:wmo:42045:1,2017-01-03T19:00:00Z,26.2168,-96.4998,4.0,3.782234789,358.0300807,4.55,'11111222,11111222,11111222' 
TABS,ioos:station:wmo:42045:1,2017-01-03T19:30:00Z,26.2168,-96.4998,4.0,4.276037886,9.285863664,5.27,'11111222,11111222,11111222' 
TABS,ioos:station:wmo:42045:1,2017-01-03T20:00:00Z,26.2168,-96.4998,4.0,5.43953123,12.52856795,6.59,'11111222,11111222,11111222' 
TABS,ioos:station:wmo:42045:1,2017-01-03T20:30:00Z,26.2168,-96.4998,4.0,3.634955295,16.78958065,4.47,'11111222,11111222,11111222' 
TABS,ioos:station:wmo:42045:1,2017-01-03T21:00:00Z,26.2168,-96.4998,4.0,3.603123645,2.385727992,4.41,'11111222,11111222,11111222' 
TABS,ioos:station:wmo:42045:1,2017-01-03T21:30:00Z,26.2168,-96.4998,4.0,2.803212443,352.621271,3.52,'11111222,11111222,11111222' 
TABS,ioos:station:wmo:42045:1,2017-01-03T22:00:00Z,26.2168,-96.4998,4.0,2.233047245,351.7608482,2.79,'11111222,11111222,11111222' 
TABS,ioos:station:wmo:42045:1,2017-01-03T22:30:00Z,26.2168,-96.4998,4.0,1.83709009,7.821123356,2.35,'11111222,11111222,11111222' 
TABS,ioos:station:wmo:42045:1,2017-01-03T23:00:00Z,26.2168,-96.4998,4.0,2.114639449,3.795832291,2.76,'11111222,11111222,11111222' 
TABS,ioos:station:wmo:42045:1,2017-01-03T23:30:00Z,26.2168,-96.4998,4.0,2.710350531,334.1911347,3.25,'11111222,11111222,11111222' 
TABS,ioos:station:wmo:42045:1,2017-01-04T00:00:00Z,26.2168,-96.4998,4.0,3.097240707,345.6046445,3.79,'11111222,11111222,11111222' 
TABS,ioos:station:wmo:42045:1,2017-01-04T00:30:00Z,26.2168,-96.4998,4.0,2.422581268,352.1707313,2.87,'11111222,11111222,11111222' 
TABS,ioos:station:wmo:42045:1,2017-01-04T01:00:00Z,26.2168,-96.4998,4.0,2.041886383,353.8145491,2.81,'11111222,11111222,11111222' 
TABS,ioos:station:wmo:42045:1,2017-01-04T01:30:00Z,26.2168,-96.4998,4.0,2.436739625,8.495655553,2.88,'11111222,11111222,11111222' 
TABS,ioos:station:wmo:42045:1,2017-01-04T02:00:00Z,26.2168,-96.4998,4.0,2.85926564,4.61364965,3.49,'11111222,11111222,11111222' 
TABS,ioos:station:wmo:42045:1,2017-01-04T02:30:00Z,26.2168,-96.4998,4.0,2.000025,0.286265382,2.5,'11111222,11111222,11111222' 
TABS,ioos:station:wmo:42045:1,2017-01-04T03:00:00Z,26.2168,-96.4998,4.0,1.814965564,350.4855912,2.24,'11111222,11111222,11111222' 
TABS,ioos:station:wmo:42045:1,2017-01-04T03:30:00Z,26.2168,-96.4998,4.0,1.67871975,351.4352909,2.26,'11111222,11111222,11111222' 
TABS,ioos:station:wmo:42045:1,2017-01-04T04:00:00Z,26.2168,-96.4998,4.0,0.247386338,14.03600019,1.02,'11111222,11111222,11111222' 
TABS,ioos:station:wmo:42045:1,2017-01-04T04:30:00Z,26.2168,-96.4998,4.0,0.474236228,312.4361306,0.92,'11111222,11111222,11111222' 
TABS,ioos:station:wmo:42045:1,2017-01-04T05:00:00Z,26.2168,-96.4998,4.0,0.590592922,331.6991,0.82,'11111222,11111222,11111222' 
TABS,ioos:station:wmo:42045:1,2017-01-04T05:30:00Z,26.2168,-96.4998,4.0,1.4611297,348.151551,1.83,'11111222,11111222,11111222' 
TABS,ioos:station:wmo:42045:1,2017-01-04T06:00:00Z,26.2168,-96.4998,4.0,1.16211015,356.5464814,1.8,'11111222,11111222,11111222' 
TABS,ioos:station:wmo:42045:1,2017-01-04T06:30:00Z,26.2168,-96.4998,4.0,0.383275358,344.8758176,0.82,'11111222,11111222,11111222' 
TABS,ioos:station:wmo:42045:1,2017-01-04T07:00:00Z,26.2168,-96.4998,4.0,0.565862174,316.4319876,0.81,'11111222,11111222,11111222' 
TABS,ioos:station:wmo:42045:1,2017-01-04T07:30:00Z,26.2168,-96.4998,4.0,0.73979727,346.7149541,0.94,'11111222,11111222,11111222' 
TABS,ioos:station:wmo:42045:1,2017-01-04T08:00:00Z,26.2168,-96.4998,4.0,1.278827588,12.18839424,1.52,'11111222,11111222,11111222' 
TABS,ioos:station:wmo:42045:1,2017-01-04T08:30:00Z,26.2168,-96.4998,4.0,1.850837648,6.203222937,2.11,'11111222,11111222,11111222' 
TABS,ioos:station:wmo:42045:1,2017-01-04T09:00:00Z,26.2168,-96.4998,4.0,3.013171087,12.65231645,3.45,'11111222,11111222,11111222' 
TABS,ioos:station:wmo:42045:1,2017-01-04T09:30:00Z,26.2168,-96.4998,4.0,3.326018641,3.447168332,4.0,'11111222,11111222,11111222' 
TABS,ioos:station:wmo:42045:1,2017-01-04T10:00:00Z,26.2168,-96.4998,4.0,2.740164229,0.627089062,3.36,'11111222,11111222,11111222' 
TABS,ioos:station:wmo:42045:1,2017-01-04T10:30:00Z,26.2168,-96.4998,4.0,3.65016438,349.5826504,4.26,'11111222,11111222,11111222' 
TABS,ioos:station:wmo:42045:1,2017-01-04T11:00:00Z,26.2168,-96.4998,4.0,4.66921835,334.0933421,5.53,'11111222,11111222,11111222' 
TABS,ioos:station:wmo:42045:1,2017-01-04T11:30:00Z,26.2168,-96.4998,4.0,7.092221091,52.67735797,8.72,'11111222,11111222,11111222' 
TABS,ioos:station:wmo:42045:1,2017-01-04T12:00:00Z,26.2168,-96.4998,4.0,8.071393932,60.86230559,9.94,'11111222,11111222,11111222' 
TABS,ioos:station:wmo:42045:1,2017-01-04T12:30:00Z,26.2168,-96.4998,4.0,8.083272852,65.74926691,9.85,'11111222,11111222,11111222' 
TABS,ioos:station:wmo:42045:1,2017-01-04T13:00:00Z,26.2168,-96.4998,4.0,7.775680035,73.10275482,9.78,'11111222,11111222,11111222' 
TABS,ioos:station:wmo:42045:1,2017-01-04T13:30:00Z,26.2168,-96.4998,4.0,7.712638978,75.89129848,9.36,'11111222,11111222,11111222' 
TABS,ioos:station:wmo:42045:1,2017-01-04T14:00:00Z,26.2168,-96.4998,4.0,7.873042614,75.4338489,9.73,'11111222,11111222,11111222' 
TABS,ioos:station:wmo:42045:1,2017-01-04T14:30:00Z,26.2168,-96.4998,4.0,7.809596661,79.15010028,9.51,'11111222,11111222,11111222' 
TABS,ioos:station:wmo:42045:1,2017-01-04T15:00:00Z,26.2168,-96.4998,4.0,7.280892802,72.65967835,8.46,'11111222,11111222,11111222' 
TABS,ioos:station:wmo:42045:1,2017-01-04T15:30:00Z,26.2168,-96.4998,4.0,7.05866843,75.0577395,8.24,'11111222,11111222,11111222' 
TABS,ioos:station:wmo:42045:1,2017-01-04T16:00:00Z,26.2168,-96.4998,4.0,6.834917703,78.18002652,8.33,'11111222,11111222,11111222' 
TABS,ioos:station:wmo:42045:1,2017-01-04T16:30:00Z,26.2168,-96.4998,4.0,6.631930337,72.35698038,8.2,'11111222,11111222,11111222' 
TABS,ioos:station:wmo:42045:1,2017-01-04T17:00:00Z,26.2168,-96.4998,4.0,6.863963869,70.24473076,8.66,'11111222,11111222,11111222' 
TABS,ioos:station:wmo:42045:1,2017-01-04T17:30:00Z,26.2168,-96.4998,4.0,6.308169307,68.51868155,7.64,'11111222,11111222,11111222' 
TABS,ioos:station:wmo:42045:1,2017-01-04T18:00:00Z,26.2168,-96.4998,4.0,5.184023534,72.71812112,6.61,'11111222,11111222,11111222' 
TABS,ioos:station:wmo:42045:1,2017-01-04T18:30:00Z,26.2168,-96.4998,4.0,4.886000409,53.15322064,6.29,'11111222,11111222,11111222' 